sat.trackr.live / text

‹ back to catalog

STARLINK-3780

NORAD 52278 · 2022-041T

PAYLOAD ACTIVE UNKNOWN

§ Identity

Operator
Country
US
Launch date
2022-04-21
Launch site
AFETR
Launch vehicle
Mass (kg)
RCS (m²)

Purposes: comms

External: N2YO · Heavens-Above · Gunter

§ Orbital elements

Epoch: 2026-09-19T09:58:08.926176Z

Period
93.79 min
Inclination
53.1633°
Eccentricity
0.0002378
Mean motion
15.35300918 rev/d
Perigee alt
458.4 km
Apogee alt
461.7 km
Semi-major
6,838.2 km
B*
-3.9389e-4
RAAN
312.4437°
Arg perigee
97.8007°
Mean anomaly
262.3266°
Rev number
24,370

§ Raw data

STARLINK-37801 52278U 22041T   26262.41538109 -.00014052  00000+0 -39389-3 0  99902 52278  53.1633 312.4437 0002378  97.8007 262.3266 15.35300918243700

JSON: /api/v1/satellites/52278 · /tle

For live sub-satellite position, see the globe view (requires WebGL).

§ Visibility from observer

Set your observer location to see the next 7 days of passes ≥ 10°. The values pass through the URL so the page stays shareable.

No JS? Fill the form by hand. The geolocation button needs JavaScript.